Pointe St Mathie, France

2:02 AM CET on February 20, 2017 (GMT +0100)
Poulmic Navy

Weather History for LFRL - June, 2013

Change the Weather History Date:

Tuesday, June 18, 2013

  Actual Average (LFRB) Record (LFRB)
Temperature  
Mean Temperature 58 °F -  
Max Temperature 62 °F 65 °F 86 °F (2000)
Min Temperature 53 °F 52 °F 44 °F (2001)
Degree Days  
Heating Degree Days 8    
Growing Degree Days 8 (Base 50)    
Moisture  
Dew Point 53 °F    
Average Humidity 86    
Maximum Humidity 100    
Minimum Humidity 68    
Precipitation  
Precipitation 0.00 in - - ()
Sea Level Pressure  
Sea Level Pressure 29.94 in    
Wind  
Wind Speed 8 mph ()    
Max Wind Speed 12 mph    
Max Gust Speed -    
Visibility 5.1 miles    
Events Fog    
Averages and records for this station are not official NWS values.
T = Trace of Precipitation, MM = Missing Value Source: Averaged Metar Reports

Daily Weather History Graph

Daily Weather History Graph

Search for Another Location

Airport or City:

Trip Planner

Search our weather history database for the weather conditions in past years. The results will help you decide how hot, cold, wet, or windy it might be!

Date:

Astronomy

Jun. 18, 2013 Rise Set
Actual Time 6:16 AM CEST 10:21 PM CEST
Civil Twilight 5:34 AM CEST 11:03 PM CEST
Nautical Twilight 4:36 AM CEST 12:01 AM CEST
Astronomical Twilight 2:48 AM CEST 1:49 AM CEST
Moon 4:30 PM CEST (6/18) 2:39 AM CEST (6/18)
Length of Visible Light 17h 28m
Length of Day
16h 05m
Waxing Gibbous, 68% of the Moon is Illuminated
Jun 18
Waxing Gibbous
Jun 23
Full
Jun 30
Last Quarter
Jul 8
New
Jul 16
First Quarter

Hourly Weather History & Observations

Time (CEST) Temp. Dew Point Humidity Pressure Visibility Wind Dir Wind Speed Gust Speed Precip Events Conditions
12:00 AM 59.0 °F 57.2 °F 94% 29.80 in 0.3 mi South 4.6 mph - N/A Fog Fog
12:30 AM 57.2 °F 55.4 °F 94% 29.83 in 1.3 mi South 11.5 mph - N/A   Mist
1:00 AM 55.4 °F 55.4 °F 100% 29.86 in 1.5 mi South 11.5 mph - N/A   Mist
1:30 AM 55.4 °F 55.4 °F 100% 29.86 in - SSW 9.2 mph - N/A   Overcast
2:00 AM 55.4 °F 53.6 °F 94% 29.86 in 3.7 mi SSW 8.1 mph - N/A   Overcast
2:30 AM 55.4 °F 53.6 °F 94% 29.86 in 6.2 mi SSW 11.5 mph - N/A   Overcast
3:00 AM 55.4 °F 53.6 °F 94% 29.83 in - SW 10.4 mph - N/A   Overcast
3:30 AM 55.4 °F 53.6 °F 94% 29.86 in 0.2 mi SSW 6.9 mph - N/A Fog Fog
4:00 AM 55.4 °F 53.6 °F 94% 29.89 in 0.3 mi South 4.6 mph - N/A Fog Fog
4:30 AM 55.4 °F 53.6 °F 94% 29.89 in 1.4 mi SSE 6.9 mph - N/A   Mist
5:00 AM 55.4 °F 53.6 °F 94% 29.89 in 0.2 mi South 9.2 mph - N/A Fog Fog
5:30 AM 55.4 °F 53.6 °F 94% 29.89 in 3.7 mi South 10.4 mph - N/A   Unknown
6:00 AM 53.6 °F 53.6 °F 100% 29.89 in 3.1 mi SSW 11.5 mph - N/A   Overcast
6:30 AM 53.6 °F 53.6 °F 100% 29.89 in 4.3 mi SSW 11.5 mph - N/A   Overcast
7:00 AM 53.6 °F 53.6 °F 100% 29.92 in 4.3 mi SSW 10.4 mph - N/A   Overcast
7:30 AM 53.6 °F 53.6 °F 100% 29.89 in 6.2 mi SSW 6.9 mph - N/A   Overcast
8:00 AM 53.6 °F 53.6 °F 100% 29.89 in 6.2 mi SSW 10.4 mph - N/A   Overcast
8:30 AM 53.6 °F 53.6 °F 100% 29.92 in 6.2 mi SSW 10.4 mph - N/A   Overcast
9:00 AM 55.4 °F 53.6 °F 94% 29.92 in 6.2 mi SSW 8.1 mph - N/A   Overcast
9:30 AM 55.4 °F 53.6 °F 94% 29.95 in 6.2 mi South 8.1 mph - N/A   Overcast
10:00 AM 55.4 °F 53.6 °F 94% 29.95 in 6.2 mi SSW 9.2 mph - N/A   Overcast
10:30 AM 57.2 °F 53.6 °F 88% 29.95 in 6.2 mi SSW 9.2 mph - N/A   Overcast
11:00 AM 57.2 °F 53.6 °F 88% 29.95 in 6.2 mi South 9.2 mph - N/A   Overcast
11:30 AM 57.2 °F 53.6 °F 88% 29.95 in 6.2 mi South 10.4 mph - N/A   Overcast
12:00 PM 57.2 °F 53.6 °F 88% 29.95 in 6.2 mi SSW 9.2 mph - N/A   Overcast
12:30 PM 59.0 °F 55.4 °F 88% 29.95 in 6.2 mi SSW 6.9 mph - N/A   Overcast
1:00 PM 59.0 °F 53.6 °F 82% 29.95 in 6.2 mi South 6.9 mph - N/A   Overcast
2:00 PM 59.0 °F 53.6 °F 82% 29.98 in 6.2 mi SSW 5.8 mph - N/A   Overcast
2:30 PM 60.8 °F 53.6 °F 77% 29.98 in 6.2 mi SSW 5.8 mph - N/A   Overcast
3:00 PM 60.8 °F 53.6 °F 77% 29.98 in 6.2 mi SSW 8.1 mph - N/A   Overcast
3:30 PM 60.8 °F 53.6 °F 77% 29.98 in 6.2 mi SW 10.4 mph - N/A   Overcast
4:00 PM 62.6 °F 55.4 °F 77% 29.98 in 6.2 mi WSW 8.1 mph - N/A   Mostly Cloudy
4:30 PM 60.8 °F 51.8 °F 72% 29.98 in 6.2 mi WSW 8.1 mph - N/A   Mostly Cloudy
5:00 PM 62.6 °F 53.6 °F 72% 29.98 in 6.2 mi WSW 9.2 mph - N/A   Mostly Cloudy
5:30 PM 62.6 °F 53.6 °F 72% 29.98 in 6.2 mi South 4.6 mph - N/A   Mostly Cloudy
6:00 PM 62.6 °F 51.8 °F 68% 29.98 in 6.2 mi Variable 2.3 mph - N/A   Overcast
6:30 PM 60.8 °F 51.8 °F 72% 29.98 in 6.2 mi WSW 4.6 mph - N/A   Mostly Cloudy
7:00 PM 62.6 °F 51.8 °F 68% 29.98 in 6.2 mi West 6.9 mph - N/A   Mostly Cloudy
7:30 PM 62.6 °F 53.6 °F 72% 29.98 in 6.2 mi West 5.8 mph - N/A   Partly Cloudy
8:00 PM 62.6 °F 51.8 °F 68% 29.98 in 6.2 mi West 6.9 mph - N/A   Partly Cloudy
8:30 PM 60.8 °F 51.8 °F 72% 29.98 in 6.2 mi WNW 9.2 mph - N/A   Partly Cloudy
9:00 PM 59.0 °F 51.8 °F 77% 29.98 in 6.2 mi West 6.9 mph - N/A   Partly Cloudy
9:30 PM 57.2 °F 50.0 °F 77% 30.01 in 6.2 mi WNW 5.8 mph - N/A   Scattered Clouds
10:00 PM 57.2 °F 51.8 °F 82% 30.01 in 6.2 mi West 4.6 mph - N/A   Mostly Cloudy
10:30 PM 57.2 °F 51.8 °F 82% 30.01 in 6.2 mi WNW 4.6 mph - N/A   Overcast
11:00 PM 57.2 °F 51.8 °F 82% 30.04 in 6.2 mi NW 4.6 mph - N/A   Overcast
11:30 PM 57.2 °F 51.8 °F 82% 30.04 in 6.2 mi NW 4.6 mph - N/A   Overcast